N29YL KFRG-KBDL

Flight info

Callsign N29YL
Flight time 0h 43m
Altitude 13000
Route DPK MAD HFD
Aircraft BE9L/L-VGDW/C

Departure

Time 2026-04-30 01:33
Airport Republic Airport (KFRG)

Arrival

Time 2026-04-30 02:16
Airport Bradley International Airport (KBDL)
Time Latitude Longitude Altitude Speed Heading
2026-04-30 01:23 40.73107 -73.41161 83 ft 0 kts 257°
2026-04-30 01:28 40.73107 -73.41170 83 ft 4 kts 279°
2026-04-30 01:28 40.73174 -73.41202 83 ft 15 kts 342°
2026-04-30 01:29 40.73262 -73.41248 83 ft 2 kts 327°
2026-04-30 01:29 40.73317 -73.41291 83 ft 14 kts 335°
2026-04-30 01:29 40.73411 -73.41395 83 ft 20 kts 273°
2026-04-30 01:29 40.73370 -73.41563 83 ft 20 kts 183°
2026-04-30 01:30 40.73384 -73.41687 83 ft 23 kts 317°
2026-04-30 01:30 40.73385 -73.41838 83 ft 4 kts 272°
2026-04-30 01:30 40.73421 -73.41894 83 ft 13 kts 313°
2026-04-30 01:30 40.73474 -73.42033 83 ft 16 kts 253°
2026-04-30 01:31 40.73465 -73.42075 83 ft 9 kts 253°
2026-04-30 01:31 40.73403 -73.42093 83 ft 8 kts 131°
2026-04-30 01:31 40.73391 -73.42072 83 ft 0 kts 132°
2026-04-30 01:32 40.73333 -73.41988 83 ft 51 kts 133°
2026-04-30 01:32 40.72922 -73.41389 107 ft 115 kts 134°
2026-04-30 01:32 40.72383 -73.40560 534 ft 120 kts 133°
2026-04-30 01:32 40.71834 -73.39594 666 ft 156 kts 125°
2026-04-30 01:33 40.71372 -73.38300 1295 ft 148 kts 109°
2026-04-30 01:33 40.71337 -73.37029 1890 ft 150 kts 77°
2026-04-30 01:33 40.71980 -73.35877 2153 ft 169 kts 33°
2026-04-30 01:33 40.73134 -73.35535 2411 ft 179 kts 352°
2026-04-30 01:34 40.74411 -73.35706 2672 ft 187 kts 352°
2026-04-30 01:34 40.75737 -73.35868 2926 ft 193 kts 356°
2026-04-30 01:34 40.77073 -73.35570 3178 ft 198 kts 15°
2026-04-30 01:34 40.78362 -73.34958 3428 ft 200 kts 21°
2026-04-30 01:35 40.79647 -73.34241 3679 ft 202 kts 23°
2026-04-30 01:35 40.80944 -73.33483 3932 ft 203 kts 24°
2026-04-30 01:35 40.82238 -73.32717 4183 ft 204 kts 24°
2026-04-30 01:35 40.83531 -73.31948 4433 ft 204 kts 24°
2026-04-30 01:36 40.84818 -73.31181 4683 ft 205 kts 24°
2026-04-30 01:36 40.86120 -73.30405 4935 ft 205 kts 24°
2026-04-30 01:36 40.87414 -73.29633 5185 ft 205 kts 24°
2026-04-30 01:36 40.88721 -73.28853 5438 ft 205 kts 23°
2026-04-30 01:37 40.90010 -73.28083 5687 ft 205 kts 23°
2026-04-30 01:37 40.91328 -73.27296 5942 ft 205 kts 23°
2026-04-30 01:37 40.92615 -73.26527 6191 ft 205 kts 23°
2026-04-30 01:37 40.93916 -73.25748 6442 ft 205 kts 23°
2026-04-30 01:38 40.95208 -73.24975 6693 ft 205 kts 23°
2026-04-30 01:38 40.96520 -73.24191 6947 ft 205 kts 23°
2026-04-30 01:38 40.97804 -73.23422 7196 ft 205 kts 23°
2026-04-30 01:38 40.99115 -73.22636 7450 ft 205 kts 23°
2026-04-30 01:39 41.00406 -73.21863 7701 ft 205 kts 23°
2026-04-30 01:39 41.01706 -73.21083 7954 ft 205 kts 23°
2026-04-30 01:39 41.02998 -73.20308 8205 ft 205 kts 23°
2026-04-30 01:39 41.04294 -73.19531 8458 ft 205 kts 23°
2026-04-30 01:40 41.05589 -73.18755 8710 ft 205 kts 23°
2026-04-30 01:40 41.06884 -73.17976 8964 ft 204 kts 23°
2026-04-30 01:40 41.08192 -73.17191 9220 ft 204 kts 23°
2026-04-30 01:40 41.09478 -73.16418 9473 ft 204 kts 23°
2026-04-30 01:41 41.10717 -73.15672 9711 ft 204 kts 24°
2026-04-30 01:41 41.12050 -73.14871 9964 ft 204 kts 24°
2026-04-30 01:41 41.13341 -73.14094 10209 ft 204 kts 24°
2026-04-30 01:41 41.14627 -73.13319 10453 ft 204 kts 24°
2026-04-30 01:42 41.15910 -73.12547 10697 ft 204 kts 24°
2026-04-30 01:42 41.17211 -73.11813 10942 ft 204 kts 22°
2026-04-30 01:42 41.18521 -73.11079 11189 ft 203 kts 22°
2026-04-30 01:42 41.19818 -73.10353 11433 ft 203 kts 22°
2026-04-30 01:43 41.21112 -73.09628 11677 ft 203 kts 22°
2026-04-30 01:43 41.22416 -73.08897 11923 ft 203 kts 22°
2026-04-30 01:43 41.23713 -73.08170 12168 ft 203 kts 23°
2026-04-30 01:43 41.25015 -73.07439 12414 ft 203 kts 23°
2026-04-30 01:44 41.26312 -73.06712 12660 ft 203 kts 23°
2026-04-30 01:44 41.27610 -73.05984 12903 ft 203 kts 23°
2026-04-30 01:44 41.28939 -73.05237 12980 ft 212 kts 23°
2026-04-30 01:44 41.30330 -73.04456 12990 ft 222 kts 23°
2026-04-30 01:45 41.31773 -73.03645 12990 ft 229 kts 23°
2026-04-30 01:45 41.33270 -73.02803 12987 ft 234 kts 24°
2026-04-30 01:45 41.34776 -73.01955 12985 ft 238 kts 24°
2026-04-30 01:45 41.36313 -73.01090 12984 ft 240 kts 24°
2026-04-30 01:46 41.37861 -73.00218 12982 ft 242 kts 24°
2026-04-30 01:46 41.39401 -72.99350 12980 ft 243 kts 24°
2026-04-30 01:46 41.40960 -72.98471 12978 ft 244 kts 24°
2026-04-30 01:46 41.42524 -72.97588 12976 ft 244 kts 24°
2026-04-30 01:47 41.44093 -72.96703 12973 ft 245 kts 24°
2026-04-30 01:47 41.45671 -72.95812 12972 ft 245 kts 24°
2026-04-30 01:47 41.47234 -72.94929 12972 ft 245 kts 24°
2026-04-30 01:47 41.48807 -72.94039 12972 ft 245 kts 24°
2026-04-30 01:48 41.50370 -72.93155 12972 ft 245 kts 24°
2026-04-30 01:48 41.51925 -72.92275 12972 ft 245 kts 24°
2026-04-30 01:48 41.53512 -72.91376 12972 ft 245 kts 24°
2026-04-30 01:48 41.55084 -72.90485 12973 ft 245 kts 24°
2026-04-30 01:49 41.56637 -72.89606 12973 ft 246 kts 24°
2026-04-30 01:49 41.58203 -72.88717 12973 ft 246 kts 24°
2026-04-30 01:49 41.59794 -72.87814 12973 ft 246 kts 24°
2026-04-30 01:49 41.61360 -72.86925 12973 ft 246 kts 24°
2026-04-30 01:50 41.62928 -72.86034 12973 ft 246 kts 24°
2026-04-30 01:50 41.64501 -72.85141 12973 ft 246 kts 24°
2026-04-30 01:50 41.66076 -72.84245 12972 ft 246 kts 24°
2026-04-30 01:50 41.67640 -72.83356 12972 ft 246 kts 24°
2026-04-30 01:51 41.69219 -72.82457 12971 ft 246 kts 24°
2026-04-30 01:51 41.70784 -72.81565 12971 ft 246 kts 24°
2026-04-30 01:51 41.72348 -72.80675 12970 ft 246 kts 24°
2026-04-30 01:51 41.73929 -72.79773 12970 ft 246 kts 24°
2026-04-30 01:52 41.75501 -72.78876 12969 ft 246 kts 24°
2026-04-30 01:52 41.77079 -72.77976 12968 ft 246 kts 24°
2026-04-30 01:52 41.78656 -72.77075 12968 ft 246 kts 24°
2026-04-30 01:52 41.80215 -72.76185 12967 ft 246 kts 24°
2026-04-30 01:53 41.81795 -72.75281 12967 ft 246 kts 24°
2026-04-30 01:53 41.83374 -72.74378 12967 ft 246 kts 24°
2026-04-30 01:53 41.84956 -72.73473 12967 ft 247 kts 24°
2026-04-30 01:53 41.86541 -72.72566 12967 ft 247 kts 24°
2026-04-30 01:54 41.88120 -72.71661 12967 ft 247 kts 24°
2026-04-30 01:54 41.89698 -72.70757 12967 ft 247 kts 24°
2026-04-30 01:54 41.91265 -72.69858 12967 ft 247 kts 24°
2026-04-30 01:54 41.92851 -72.68948 12967 ft 247 kts 24°
2026-04-30 01:55 41.94438 -72.68036 12966 ft 247 kts 24°
2026-04-30 01:55 41.96014 -72.67131 12965 ft 247 kts 24°
2026-04-30 01:55 41.97580 -72.66230 12964 ft 247 kts 24°
2026-04-30 01:55 41.99157 -72.65321 12962 ft 247 kts 24°
2026-04-30 01:56 42.00737 -72.64411 12961 ft 247 kts 24°
2026-04-30 01:56 42.02362 -72.63687 12947 ft 247 kts
2026-04-30 01:56 42.04041 -72.63977 12808 ft 242 kts 347°
2026-04-30 01:56 42.05699 -72.64363 12539 ft 242 kts 346°
2026-04-30 01:57 42.07326 -72.64743 12191 ft 241 kts 346°
2026-04-30 01:57 42.08974 -72.65130 11844 ft 239 kts 346°
2026-04-30 01:57 42.10607 -72.65517 11504 ft 237 kts 346°
2026-04-30 01:57 42.12225 -72.65905 11165 ft 236 kts 346°
2026-04-30 01:58 42.13824 -72.66293 10833 ft 234 kts 346°
2026-04-30 01:58 42.15419 -72.66684 10506 ft 232 kts 346°
2026-04-30 01:58 42.17000 -72.67077 10185 ft 231 kts 346°
2026-04-30 01:58 42.18560 -72.67468 9872 ft 229 kts 346°
2026-04-30 01:59 42.21672 -72.68264 9258 ft 226 kts 346°
2026-04-30 01:59 42.23207 -72.68664 8960 ft 225 kts 346°
2026-04-30 01:59 42.24735 -72.69005 8656 ft 225 kts 359°
2026-04-30 02:00 42.26165 -72.68265 8359 ft 219 kts 45°
2026-04-30 02:00 42.26894 -72.66562 8074 ft 208 kts 77°
2026-04-30 02:00 42.27370 -72.64739 7783 ft 208 kts 76°
2026-04-30 02:00 42.27847 -72.62882 7497 ft 207 kts 76°
2026-04-30 02:01 42.28309 -72.61060 7222 ft 206 kts 76°
2026-04-30 02:01 42.28769 -72.59230 6949 ft 205 kts 76°
2026-04-30 02:01 42.29222 -72.57404 6681 ft 204 kts 76°
2026-04-30 02:01 42.29664 -72.55604 6306 ft 202 kts 76°
2026-04-30 02:02 42.30095 -72.53816 5866 ft 202 kts 76°
2026-04-30 02:02 42.30476 -72.52002 5425 ft 198 kts 89°
2026-04-30 02:02 42.30088 -72.50352 4995 ft 185 kts 133°
2026-04-30 02:02 42.29245 -72.49057 4566 ft 184 kts 136°
2026-04-30 02:03 42.28397 -72.47774 4140 ft 183 kts 135°
2026-04-30 02:03 42.27564 -72.46519 3961 ft 176 kts 135°
2026-04-30 02:03 42.26750 -72.45293 3940 ft 174 kts 135°
2026-04-30 02:03 42.25956 -72.44095 3935 ft 169 kts 135°
2026-04-30 02:04 42.25179 -72.42917 3934 ft 165 kts 135°
2026-04-30 02:04 42.24424 -72.41768 3934 ft 162 kts 135°
2026-04-30 02:04 42.23681 -72.40634 3934 ft 160 kts 135°
2026-04-30 02:04 42.22944 -72.39510 3878 ft 161 kts 137°
2026-04-30 02:05 42.21967 -72.38914 3730 ft 161 kts 180°
2026-04-30 02:05 42.20855 -72.39246 3326 ft 169 kts 195°
2026-04-30 02:05 42.19711 -72.39687 2995 ft 170 kts 196°
2026-04-30 02:05 42.18621 -72.40108 2939 ft 156 kts 196°
2026-04-30 02:06 42.17618 -72.40494 2930 ft 143 kts 196°
2026-04-30 02:06 42.16693 -72.40847 2930 ft 133 kts 196°
2026-04-30 02:06 42.15833 -72.41174 2930 ft 124 kts 196°
2026-04-30 02:06 42.15120 -72.41708 2935 ft 116 kts 219°
2026-04-30 02:07 42.14505 -72.42390 2931 ft 110 kts 219°
2026-04-30 02:07 42.13885 -72.42937 2931 ft 104 kts 213°
2026-04-30 02:07 42.13312 -72.43504 2931 ft 99 kts 217°
2026-04-30 02:07 42.12777 -72.44097 2820 ft 105 kts 219°
2026-04-30 02:08 42.12194 -72.44793 2618 ft 118 kts 221°
2026-04-30 02:08 42.11597 -72.45539 2610 ft 111 kts 221°
2026-04-30 02:08 42.11052 -72.46234 2616 ft 105 kts 222°
2026-04-30 02:08 42.10537 -72.46897 2618 ft 100 kts 222°
2026-04-30 02:09 42.10048 -72.47531 2617 ft 95 kts 222°
2026-04-30 02:09 42.09580 -72.48141 2618 ft 91 kts 222°
2026-04-30 02:09 42.09136 -72.48720 2617 ft 86 kts 221°
2026-04-30 02:09 42.08702 -72.49284 2535 ft 91 kts 222°
2026-04-30 02:10 42.08213 -72.49923 2356 ft 105 kts 222°
2026-04-30 02:10 42.07661 -72.50654 2169 ft 117 kts 223°
2026-04-30 02:10 42.07066 -72.51437 2058 ft 120 kts 222°
2026-04-30 02:10 42.06479 -72.52203 2039 ft 115 kts 223°
2026-04-30 02:11 42.05916 -72.52947 2037 ft 109 kts 222°
2026-04-30 02:11 42.05405 -72.53618 2032 ft 96 kts 222°
2026-04-30 02:11 42.04944 -72.54223 2059 ft 98 kts 221°
2026-04-30 02:11 42.04368 -72.54976 2068 ft 129 kts 222°
2026-04-30 02:12 42.03705 -72.55855 2058 ft 139 kts 223°
2026-04-30 02:12 42.03008 -72.56787 2052 ft 143 kts 220°
2026-04-30 02:12 42.02313 -72.57697 2045 ft 130 kts 220°
2026-04-30 02:12 42.01704 -72.58496 1962 ft 117 kts 219°
2026-04-30 02:13 42.01136 -72.59244 1825 ft 113 kts 219°
2026-04-30 02:13 42.00573 -72.59982 1685 ft 111 kts 220°
2026-04-30 02:13 42.00025 -72.60702 1546 ft 110 kts 220°
2026-04-30 02:13 41.99477 -72.61424 1403 ft 110 kts 220°
2026-04-30 02:14 41.98933 -72.62136 1259 ft 110 kts 220°
2026-04-30 02:14 41.98387 -72.62856 1113 ft 110 kts 220°
2026-04-30 02:14 41.97840 -72.63571 966 ft 110 kts 220°
2026-04-30 02:14 41.97293 -72.64291 819 ft 110 kts 220°
2026-04-30 02:15 41.96744 -72.65015 671 ft 110 kts 221°
2026-04-30 02:15 41.96195 -72.65731 525 ft 111 kts 221°
2026-04-30 02:15 41.95644 -72.66452 377 ft 111 kts 221°
2026-04-30 02:15 41.95089 -72.67182 226 ft 111 kts 221°
2026-04-30 02:16 41.94558 -72.67902 174 ft 105 kts 220°
2026-04-30 02:16 41.94108 -72.68462 174 ft 71 kts 225°
2026-04-30 02:16 41.93828 -72.68841 174 ft 33 kts 236°
2026-04-30 02:16 41.93840 -72.69012 174 ft 13 kts 315°
2026-04-30 02:17 41.93845 -72.69018 174 ft 0 kts 315°
2026-04-30 02:17 41.93858 -72.69083 174 ft 13 kts 250°
2026-04-30 02:17 41.93774 -72.69201 174 ft 21 kts 224°
2026-04-30 02:17 41.93767 -72.69370 174 ft 26 kts 314°
2026-04-30 02:18 41.93768 -72.69467 174 ft 0 kts 169°